Weather Service Report


988 
ASUS41 KRLX 012010
RWRRLX
West Virginia Regional Weather Roundup
National Weather Service Charleston WV
400 PM EDT SAT AUG 01 2015

Note: "fair" indicates few or no clouds below 12,000 feet with no
significant weather and/or obstructions to visibility.

WVZ003-012100-
Northern Panhandle of West Virginia
  
CITY           SKY/WX    TMP DP  RH WIND       PRES   REMARKS
WHEELING       PTSUNNY   82  52  35 W9        29.94S                  
$$

WVZ009-012100-
Northwest West Virginia
  
CITY           SKY/WX    TMP DP  RH WIND       PRES   REMARKS
PARKERSBURG    SUNNY     84  53  34 VRB7      29.99S                  
$$

WVZ006-012100-
Western West Virginia
  
CITY           SKY/WX    TMP DP  RH WIND       PRES   REMARKS
HUNTINGTON     MOSUNNY   81  55  40 VRB5      29.98S                  
$$

WVZ015-012100-
West Central West Virginia
  
CITY           SKY/WX    TMP DP  RH WIND       PRES   REMARKS
CHARLESTON     MOSUNNY   84  51  31 VRB6      29.98S                  
$$

WVZ022-031-012100-
North Central West Virginia
  
CITY           SKY/WX    TMP DP  RH WIND       PRES   REMARKS
CLARKSBURG     MOSUNNY   82  54  37 VRB7      29.96S                  
MORGANTOWN     PTSUNNY   86  51  29 MISG      29.95F                  
$$

WVZ025-035-042-045-012100-
Southern West Virginia
  
CITY           SKY/WX    TMP DP  RH WIND       PRES   REMARKS
BECKLEY        MOSUNNY   78  55  44 VRB6      30.04F                  
LOGAN            N/A     79  57  47 N5        29.98S                  
BLUEFIELD      PTSUNNY   80  53  39 W9        30.07S                  
LEWISBURG      MOSUNNY   81  50  34 NW8       30.02F                  
$$

WVZ047-012100-
Northern Mountains of West Virginia
  
CITY           SKY/WX    TMP DP  RH WIND       PRES   REMARKS
ELKINS         PTSUNNY   78  50  37 W10       30.01S                  
$$

WVZ052-012100-
Eastern Panhandle of West Virginia
  
CITY           SKY/WX    TMP DP  RH WIND       PRES   REMARKS
MARTINSBURG    SUNNY     87  52  29 W14G21    29.88S                  
PETERSBURG     MOSUNNY  N/A N/A N/A W9        29.93S                  
$$

Return to Home page


Western Regional Climate Center, wrcc@dri.edu